Torna al catalogo

FENGYUN 1C DEB

AttivoPO
NORAD 31743·DEBRIS·🇨🇳 China

Lanciato May 10, 1999 da Taiyuan Satellite Launch Center

Loading…

Prossimi Passaggi (prossime 24 ore)

TLE

AggiornatoSource: Space-Track

Epoca: Sep 14, 2026, 08:07 UTC

1 31743U 99025CES 26257.33874977  .00002866  00000-0  10455-2 0  9992
2 31743  99.1541 205.3978 0037611 135.5609  16.2776 14.33523671995861

Traccia FENGYUN 1C DEB in tempo reale con AllMySat

Download on the App Store